Total_Precipitation_Accumulation
0.00 0.00 0.00 0.00 0.00 0.00 0.00 0.00 0.00 0.00 0.00 0.01 0.03 0.05 0.06 0.07 0.07 0.14 0.19 0.17 0.20 0.31 0.47 0.70 1.01 1.41 1.91 1.85 1.70 1.78 1.94 1.93 1.93 2.16 2.22 2.31 2.61 2.88 3.07 3.15 3.08 3.04 2.94 2.94
0.00 0.00 0.00 0.00 0.00 0.00 0.00 0.00 0.01 0.02 0.02 0.02 0.05 0.07 0.08 0.11 0.11 0.18 0.24 0.30 0.33 0.39 0.60 0.87 1.20 1.72 2.15 2.29 2.29 2.23 2.38 2.55 2.67 2.83 3.13 3.46 3.73 3.97 4.19 4.22 3.82 3.58 3.44 3.33
0.00 0.00 0.00 0.00 0.00 0.00 0.00 0.00 0.02 0.05 0.04 0.04 0.08 0.15 0.18 0.20 0.21 0.28 0.41 0.53 0.68 0.68 0.89 1.15 1.40 1.81 2.17 2.31 2.42 2.49 2.65 3.00 3.44 3.77 4.08 4.46 4.70 4.83 4.67 4.43 4.26 4.05 3.86 3.70
0.00 0.00 0.00 0.00 0.00 0.00 0.00 0.00 0.00 0.02 0.03 0.06 0.08 0.22 0.39 0.38 0.37 0.46 0.59 0.56 0.64 0.81 1.05 1.30 1.57 1.85 2.14 2.31 2.40 2.66 3.13 3.72 4.23 4.61 5.00 5.46 5.64 5.48 5.19 4.81 4.44 4.15 3.83 3.47
0.00 0.00 0.00 0.00 0.01 0.01 0.00 0.00 0.01 0.01 0.01 0.05 0.06 0.18 0.51 0.57 0.57 0.65 0.79 0.66 0.61 0.64 0.85 1.12 1.36 1.59 1.91 2.08 2.31 2.65 3.21 3.89 4.59 5.31 5.86 6.17 6.09 5.79 5.42 4.80 4.27 3.79 3.40 3.07
0.00 0.00 0.01 0.01 0.01 0.00 0.00 0.00 0.00 0.01 0.01 0.03 0.05 0.17 0.55 0.82 0.89 0.84 0.71 0.63 0.57 0.55 0.61 0.73 0.88 1.10 1.36 1.71 2.07 2.46 3.05 3.76 4.40 5.01 5.44 5.49 5.37 5.17 4.76 4.14 3.57 3.22 2.91 2.58
0.02 0.02 0.02 0.01 0.01 0.01 0.01 0.01 0.04 0.05 0.06 0.07 0.09 0.24 0.62 0.90 1.05 0.86 0.67 0.56 0.45 0.44 0.47 0.53 0.63 0.86 1.14 1.39 1.74 2.17 2.61 3.17 3.61 3.97 4.33 4.39 4.34 4.15 3.91 3.51 3.09 2.70 2.26 1.92
0.09 0.06 0.03 0.01 0.01 0.01 0.01 0.01 0.06 0.10 0.10 0.14 0.22 0.44 0.75 0.80 0.85 0.70 0.58 0.50 0.44 0.43 0.45 0.52 0.64 0.79 1.04 1.28 1.52 1.73 2.01 2.35 2.51 2.57 2.75 2.91 2.88 2.85 2.73 2.48 2.26 2.01 1.68 1.35
0.16 0.09 0.03 0.01 0.01 0.01 0.01 0.01 0.02 0.04 0.05 0.17 0.41 0.66 0.91 0.79 0.69 0.62 0.61 0.52 0.46 0.46 0.48 0.53 0.61 0.69 0.82 0.97 1.08 1.17 1.29 1.46 1.53 1.60 1.61 1.67 1.72 1.73 1.65 1.48 1.30 1.14 0.98 0.81
0.13 0.10 0.04 0.02 0.02 0.02 0.03 0.03 0.04 0.08 0.14 0.26 0.47 0.75 1.02 1.06 0.93 0.75 0.60 0.48 0.40 0.43 0.46 0.49 0.54 0.59 0.65 0.70 0.77 0.82 0.85 0.94 1.04 1.09 1.09 1.09 1.08 1.04 0.95 0.85 0.76 0.66 0.58 0.52
0.11 0.11 0.06 0.03 0.04 0.04 0.05 0.05 0.08 0.12 0.12 0.28 0.54 0.98 1.18 1.37 1.33 0.96 0.68 0.53 0.45 0.44 0.45 0.51 0.53 0.48 0.47 0.49 0.55 0.61 0.65 0.69 0.72 0.74 0.77 0.76 0.71 0.66 0.62 0.58 0.53 0.46 0.38 0.32
0.14 0.18 0.18 0.12 0.07 0.06 0.05 0.07 0.13 0.26 0.26 0.25 0.53 1.24 1.55 1.67 1.57 1.22 0.90 0.73 0.67 0.57 0.55 0.57 0.55 0.48 0.45 0.48 0.49 0.51 0.52 0.55 0.60 0.54 0.50 0.51 0.46 0.42 0.39 0.36 0.32 0.28 0.25 0.21
0.10 0.19 0.40 0.36 0.25 0.14 0.08 0.09 0.11 0.15 0.23 0.33 0.62 1.33 1.76 1.73 1.65 1.38 1.10 0.99 0.97 0.90 0.82 0.73 0.64 0.57 0.54 0.51 0.47 0.44 0.41 0.41 0.45 0.43 0.37 0.36 0.35 0.33 0.30 0.25 0.21 0.19 0.18 0.18
0.09 0.22 0.54 0.72 0.49 0.29 0.19 0.12 0.09 0.13 0.29 0.40 0.63 1.09 1.51 1.62 1.57 1.46 1.39 1.41 1.34 1.14 0.91 0.77 0.70 0.64 0.60 0.56 0.50 0.44 0.40 0.36 0.35 0.36 0.34 0.29 0.26 0.25 0.23 0.21 0.19 0.16 0.14 0.13
0.16 0.39 0.44 0.39 0.32 0.27 0.22 0.20 0.16 0.16 0.23 0.43 0.73 1.03 1.37 1.54 1.53 1.56 1.67 1.61 1.36 1.11 0.92 0.82 0.78 0.74 0.70 0.64 0.58 0.49 0.42 0.37 0.34 0.35 0.36 0.32 0.26 0.22 0.20 0.19 0.19 0.17 0.14 0.10
0.21 0.36 0.37 0.35 0.28 0.29 0.28 0.31 0.31 0.29 0.35 0.56 0.82 1.23 1.58 1.70 1.73 1.65 1.63 1.61 1.50 1.30 1.12 0.98 0.89 0.82 0.78 0.72 0.67 0.63 0.58 0.53 0.44 0.40 0.41 0.38 0.32 0.26 0.21 0.17 0.14 0.11 0.08 0.05
0.20 0.33 0.53 0.50 0.29 0.40 0.56 0.48 0.40 0.41 0.49 0.66 0.83 1.04 1.29 1.40 1.47 1.54 1.62 1.65 1.61 1.47 1.30 1.16 1.11 1.05 1.00 0.91 0.84 0.77 0.66 0.56 0.47 0.39 0.34 0.31 0.27 0.23 0.18 0.13 0.10 0.08 0.07 0.06
0.14 0.28 0.42 0.43 0.47 0.73 0.60 0.41 0.37 0.41 0.50 0.53 0.61 0.72 0.95 1.09 1.22 1.41 1.55 1.66 1.68 1.54 1.45 1.36 1.25 1.14 1.07 0.95 0.80 0.61 0.48 0.40 0.35 0.30 0.26 0.21 0.17 0.14 0.11 0.09 0.08 0.09 0.09 0.08
0.07 0.19 0.34 0.42 0.59 0.69 0.61 0.36 0.32 0.45 0.56 0.48 0.49 0.51 0.59 0.69 0.83 1.17 1.29 1.32 1.42 1.42 1.35 1.27 1.17 1.09 0.97 0.79 0.60 0.45 0.36 0.31 0.27 0.24 0.21 0.15 0.11 0.10 0.10 0.09 0.08 0.09 0.10 0.10
0.06 0.14 0.30 0.43 0.66 0.79 0.72 0.29 0.18 0.33 0.69 0.60 0.53 0.53 0.57 0.68 0.77 0.82 0.85 0.85 0.92 1.01 1.04 1.04 0.94 0.83 0.71 0.54 0.40 0.33 0.28 0.25 0.22 0.18 0.14 0.11 0.09 0.10 0.10 0.10 0.10 0.10 0.11 0.11
0.20 0.22 0.36 0.49 0.66 0.73 0.39 0.21 0.27 0.61 0.78 0.63 0.53 0.58 0.71 0.82 0.72 0.51 0.47 0.59 0.68 0.75 0.80 0.77 0.70 0.63 0.51 0.38 0.31 0.30 0.26 0.23 0.18 0.12 0.11 0.09 0.08 0.08 0.08 0.10 0.12 0.11 0.11 0.11
0.30 0.37 0.46 0.50 0.66 0.70 0.26 0.24 0.45 0.53 0.40 0.35 0.38 0.42 0.44 0.42 0.37 0.32 0.32 0.40 0.50 0.59 0.63 0.59 0.51 0.44 0.36 0.30 0.28 0.27 0.24 0.18 0.14 0.12 0.12 0.11 0.09 0.05 0.06 0.12 0.14 0.11 0.12 0.13
0.26 0.32 0.37 0.45 0.56 0.41 0.18 0.19 0.21 0.21 0.25 0.24 0.29 0.30 0.24 0.24 0.27 0.27 0.28 0.34 0.41 0.43 0.43 0.39 0.33 0.30 0.29 0.26 0.26 0.25 0.19 0.12 0.10 0.12 0.14 0.12 0.08 0.06 0.05 0.08 0.11 0.10 0.11 0.10
0.28 0.18 0.19 0.24 0.29 0.22 0.17 0.16 0.15 0.17 0.20 0.21 0.23 0.26 0.22 0.17 0.15 0.19 0.27 0.35 0.38 0.35 0.30 0.28 0.27 0.27 0.27 0.26 0.25 0.23 0.16 0.14 0.15 0.18 0.16 0.12 0.10 0.08 0.06 0.05 0.04 0.04 0.05 0.06
0.32 0.17 0.18 0.23 0.25 0.22 0.24 0.21 0.17 0.18 0.18 0.19 0.22 0.26 0.22 0.15 0.13 0.17 0.25 0.28 0.30 0.30 0.29 0.30 0.34 0.32 0.26 0.21 0.20 0.17 0.15 0.15 0.20 0.21 0.16 0.13 0.11 0.08 0.08 0.06 0.03 0.02 0.02 0.01
0.22 0.21 0.20 0.25 0.24 0.26 0.30 0.21 0.17 0.22 0.28 0.31 0.30 0.25 0.19 0.16 0.15 0.17 0.20 0.21 0.23 0.26 0.28 0.32 0.30 0.25 0.18 0.14 0.14 0.11 0.09 0.09 0.14 0.16 0.13 0.10 0.08 0.07 0.05 0.07 0.07 0.02 0.01 0.01